Regional Weather Roundup
Issued by NWS

Home | Current Version | Previous Version | Graphics & Text | Print | Product List | Glossary On
Versions: 1 2 3 4 5 6 7 8 9 10 11 12 13 14 15 16 17 18 19 20 21 22 23 24 25 26 27 28 29 30 31 32 33 34 35 36 37 38 39 40 41 42 43 44 45 46 47 48 49 50
000
ASUS43 KFSD 100010
RWRSD

WEATHER ROUNDUP FOR SOUTH DAKOTA
NATIONAL WEATHER SERVICE SIOUX FALLS SD
600 PM CST FRI DEC 09 2016

NOTE: "FAIR" INDICATES FEW OR NO CLOUDS BELOW 12,000 FEET WITH NO
SIGNIFICANT WEATHER AND/OR OBSTRUCTIONS TO VISIBILITY.


SDZ001>005-009-010-012>017-100100-
NORTHWEST AND NORTH CENTRAL SOUTH DAKOTA

CITY           SKY/WX    TMP DP  RH WIND       PRES   REMARKS
BUFFALO          N/A     -2  -7  79 E9        30.27F WCI -18
FAITH            N/A     -7 -10  87 NE6       30.43R WCI -20
MOBRIDGE       CLOUDY    -2  -9  72 N3        30.49S
$$

SDZ012>016-024>037-041>051-057-063-072>074-100100-
SOUTHWEST AND SOUTH CENTRAL SOUTH DAKOTA

CITY           SKY/WX    TMP DP  RH WIND       PRES   REMARKS
RAPID CTY ARPT CLOUDY     2  -4  76 NE6       30.34S WCI  -9
PIERRE         CLOUDY     2  -4  76 N13       30.51R WCI -15
CUSTER         CLOUDY     3  -4  72 S5        30.07R WCI  -6
ELLSWORTH AFB  CLOUDY     1  -4  78 E3        30.33
PHILIP         CLOUDY     4  -1  80 NE8       30.46R WCI  -9
PINE RIDGE     CLOUDY     4   0  83 NE5       30.31F WCI  -5
SPEARFISH      CLOUDY    -2  -6  84 NE6       30.26R WCI -14
WINNER         LGT SNOW  10   5  80 NE7       30.45R WCI  -1
$$

SDZ004>011-016>023-039-040-100100-
NORTHEAST SOUTH DAKOTA

CITY           SKY/WX    TMP DP  RH WIND       PRES   REMARKS
ABERDEEN       PTCLDY     3  -5  69 N7        30.55R WCI  -9
WATERTOWN      CLOUDY     3  -2  79 N6        30.48R WCI  -8
BROOKINGS      FLURRIES   7   2  80 N8        30.47S WCI  -6
SISSETON         N/A      2  -3  80 NW7       30.53F WCI -11
$$

SDZ017-020-022-023-036>040-048>070-100100-
SOUTHEAST SOUTH DAKOTA

CITY           SKY/WX    TMP DP  RH WIND       PRES   REMARKS
SIOUX FALLS    LGT SNOW  14   8  77 NE5       30.49R WCI   6
HURON          CLOUDY     5   0  79 N7        30.54S WCI  -7
CHAMBERLAIN    FLURRIES  10   6  82 NE7       30.49R WCI   0
MITCHELL       LGT SNOW   9   6  88 N9        30.54R FOG     WCI  -4
YANKTON        CLOUDY    16   7  67 NE5       30.49R WCI   9
$$

ABBREVIATIONS USED IN REMARKS
   TC - TEMPERATURE IN CELSIUS
  WCI - WIND CHILL INDEX
   HX - HEAT INDEX
  VSB - VISIBILITY




USA.gov is the U.S. government's official web portal to all federal, state and local government web resources and services.